Location: Chippewa Lake
(41.0698°N, 81.9010°W)
Time: 01:34:22
(UTC+00:00)

Meteor 1-25 Rocket - Pass Details

Date: 09 May 2021
Orbit: 838 x 890 km, 81.2° (Epoch: 24 June)

Event Time Altitude Azimuth Distance (km) Brightness Sun altitude
Rises 02:11:52 0° 350° (N) 3,501 8.3 -16.5°
Reaches altitude 10° 02:14:19 10° 351° (N) 2,562 7.5 -16.9°
Maximum altitude 02:20:11 89° 82° (E) 897 4.3 -17.7°
Enters shadow 02:23:58 23° 171° (S) 1,795 5.4 -18.2°
